W5GED Weather Reports


time (UTC)temp
F
wind
direction
speed
knots
gust
knots
rain 1hr
in
rain 24hr
in
rain mn
in
humidity
%
barometer
mb
20260510034610 0 205 1.7 1.7 0.00 0.63 0.63
20260510033645 0 145 1.7 2.6 0.00 0.63 0.63
20260510032526 0 134 1.7 1.7 0.00 0.63 0.63
20260510031520 0 119 4.3 5.2 0.00 0.63 0.63
20260510021523 0 115 6.1 10.4 0.00 0.63 0.63
20260510021136 0 99 7.8 12.2 0.00 0.63 0.63
20260510010527 0 158 1.7 2.6 0.00 0.63 0.63
20260510010127 70 150 1.7 4.3 0.14 0.63 0.63 93 1008.3
20260510004521 69 119 2.6 6.1 0.55 0.63 0.63 92 1008.2
20260510003521 69 172 1.7 5.2 0.57 0.63 0.63 90 1008.2
20260510002521 70 184 3.5 5.2 0.63 0.63 0.63 90 1008.6
20260510001522 70 121 2.6 3.5 0.63 0.63 0.63 87 1008.4
20260510000522 69 148 3.5 15.6 0.63 0.63 0.63 89 1008.2
20260509235519 73 83 6.1 20.0 0.50 0.50 0.50 85 1009.4
20260509234546 78 173 3.5 4.3 0.09 0.09 0.09 80 1008.7
20260509233519 84 167 2.6 6.1 0.06 0.06 0.06 70 1008.3
20260509232539 86 76 1.7 5.2 0.00 0.00 0.00 67 1007.7
20260509231519 88 175 1.7 3.5 0.00 0.00 0.00 64 1007.8
20260509230519 88 201 0.9 2.6 0.00 0.00 0.00 62 1007.6
20260509225539 89 192 0.9 2.6 0.00 0.00 0.00 63 1007.5
20260509224519 89 73 0.9 4.3 0.00 0.00 0.00 63 1007.4
20260509223520 89 70 1.7 3.5 0.00 0.00 0.00 62 1007.5
20260509222540 90 75 2.6 6.1 0.00 0.00 0.00 61 1007.4
20260509221537 92 233 0.9 3.5 0.00 0.00 0.00 60 1007.2
20260509220517 92 294 0.9 3.5 0.00 0.00 0.00 58 1007.3
20260509215520 91 222 0.9 4.3 0.00 0.00 0.00 59 1007.3
20260509214520 90 313 1.7 3.5 0.00 0.00 0.00 61 1007.3
20260509213517 91 13 1.7 4.3 0.00 0.00 0.00 61 1007.3
20260509212518 91 275 1.7 3.5 0.00 0.00 0.00 61 1007.4
20260509211518 90 272 0.9 2.6 0.00 0.00 0.00 62 1007.4
20260509210538 91 30 1.7 4.3 0.00 0.00 0.00 62 1007.5
20260509205518 90 7 1.7 7.0 0.00 0.00 0.00 63 1007.8
20260509204521 89 287 2.6 6.1 0.00 0.00 0.00 64 1008.0
20260509203518 89 301 1.7 4.3 0.00 0.00 0.00 63 1008.0
20260509202518 88 1 1.7 4.3 0.00 0.00 0.00 65 1008.1
20260509201518 90 33 2.6 5.2 0.00 0.00 0.00 65 1008.2
20260509200519 90 301 1.7 4.3 0.00 0.00 0.00 61 1008.3
20260509195519 89 301 2.6 6.1 0.00 0.00 0.00 64 1008.4
20260509194519 90 21 2.6 7.0 0.00 0.00 0.00 62 1008.4
20260509193519 89 303 2.6 8.7 0.00 0.00 0.00 60 1008.5
20260509192519 87 7 1.7 5.2 0.00 0.00 0.00 65 1008.6
20260509191519 88 265 2.6 7.0 0.00 0.00 0.00 64 1008.6
20260509190519 88 4 1.7 4.3 0.00 0.00 0.00 62 1008.7
20260509185516 87 76 2.6 5.2 0.00 0.00 0.00 65 1008.8
20260509184519 87 164 1.7 5.2 0.00 0.02 0.00 66 1008.9
20260509183532 87 222 1.7 1.7 0.00 0.02 0.00 66 1009.1
20260509182532 86 194 1.7 2.6 0.00 0.02 0.00 67 1009.3
20260509181532 85 211 1.7 2.6 0.00 0.02 0.00 69 1009.3
20260509180532 85 165 1.7 4.3 0.00 0.02 0.00 69 1009.5
20260509175517 86 131 1.7 3.5 0.00 0.02 0.00 71 1009.7
20260509174517 85 58 0.9 2.6 0.00 0.02 0.00 71 1009.8
20260509173520 85 161 1.7 4.3 0.00 0.02 0.00 73 1010.0
20260509172517 85 180 1.7 4.3 0.00 0.02 0.00 73 1010.1
20260509171520 84 158 2.6 5.2 0.00 0.02 0.00 75 1009.9
20260509170520 84 192 1.7 5.2 0.00 0.02 0.00 75 1010.3
20260509165521 82 179 2.6 5.2 0.00 0.02 0.00 78 1010.4
20260509164533 82 21 1.7 3.5 0.00 0.02 0.00 80 1010.3
20260509163558 81 5 1.7 2.6 0.00 0.02 0.00 82 1010.3
20260509162518 80 24 0.9 1.7 0.00 0.02 0.00 84 1010.3
20260509161518 80 5 0.0 0.9 0.00 0.02 0.00 84 1010.3
20260509160518 80 22 1.7 2.6 0.00 0.02 0.00 84 1010.3
20260509155518 79 195 0.9 1.7 0.00 0.02 0.00 85 1010.4
20260509154518 79 51 0.9 1.7 0.00 0.02 0.00 87 1010.3
20260509153518 79 63 0.9 1.7 0.00 0.02 0.00 87 1010.3
20260509152519 78 39 1.7 1.7 0.00 0.02 0.00 88 1010.2
20260509151519 78 25 0.9 2.6 0.00 0.02 0.00 88 1010.3
20260509150519 78 99 0.9 2.6 0.00 0.02 0.00 88 1010.1
20260509145519 77 173 0.9 1.7 0.00 0.02 0.00 89 1010.0
20260509144519 77 78 0.9 1.7 0.00 0.02 0.00 91 1009.9
20260509143519 77 60 0.9 1.7 0.00 0.02 0.00 91 1009.7
20260509142540 76 60 0.9 1.7 0.00 0.02 0.00 92 1009.6
20260509141520 76 183 0.0 0.9 0.00 0.02 0.00 93 1009.4
20260509140519 76 333 0.0 1.7 0.00 0.02 0.00 94 1009.3
20260509135520 76 168 0.9 1.7 0.00 0.02 0.00 94 1009.3
20260509134520 76 136 0.0 1.7 0.00 0.02 0.00 94 1009.8
20260509133520 76 177 0.9 2.6 0.00 0.02 0.00 94 1010.2
20260509132540 76 170 0.0 1.7 0.00 0.02 0.00 95 1010.2
20260509131520 75 159 0.9 1.7 0.00 0.02 0.00 96 1010.3
20260509130521 75 145 0.0 1.7 0.00 0.02 0.00 96 1010.6
20260509125520 75 240 0.9 1.7 0.00 0.02 0.00 97 1010.6
20260509124521 75 63 0.9 1.7 0.00 0.02 0.00 97 1010.0
20260509123521 74 144 0.9 1.7 0.00 0.02 0.00 97 1010.2
20260509122521 74 188 0.9 1.7 0.00 0.02 0.00 97 1010.2
20260509121521 74 184 0.9 1.7 0.00 0.02 0.00 97 1010.3
20260509120521 74 190 0.0 0.9 0.00 0.02 0.00 97 1010.2
20260509115521 74 192 0.9 1.7 0.00 0.02 0.00 97 1010.0
20260509114521 74 114 0.0 0.9 0.00 0.02 0.00 97 1010.0
20260509113522 74 162 0.0 0.9 0.00 0.02 0.00 97 1010.1
20260509112522 74 5 0.9 1.7 0.00 0.02 0.00 97 1010.1
20260509111522 74 336 0.9 1.7 0.00 0.02 0.00 96 1010.0
20260509110522 74 40 0.9 1.7 0.00 0.02 0.00 96 1009.8
20260509105522 74 70 0.0 0.9 0.00 0.02 0.00 96 1009.6
20260509104522 74 25 0.9 1.7 0.00 0.02 0.00 96 1009.4
20260509103523 74 252 0.0 0.9 0.00 0.02 0.00 96 1009.3
20260509102523 74 155 0.0 0.9 0.00 0.02 0.00 96 1009.4
20260509101523 75 180 0.9 1.7 0.00 0.02 0.00 96 1009.5
20260509100523 75 164 0.0 0.9 0.00 0.02 0.00 96 1009.3
20260509095523 75 195 0.0 0.9 0.00 0.02 0.00 96 1009.2
20260509094523 75 17 0.0 0.9 0.00 0.02 0.00 96 1009.1
20260509093543 75 30 0.0 0.9 0.00 0.02 0.00 96 1009.0
20260509092524 75 49 0.9 1.7 0.00 0.02 0.00 96 1009.0
20260509091524 75 44 0.9 0.9 0.00 0.02 0.00 96 1009.4
20260509090523 75 220 0.0 0.9 0.00 0.02 0.00 96 1009.5
20260509085524 75 11 0.9 1.7 0.00 0.02 0.00 96 1009.5
20260509084544 75 75 0.0 0.0 0.00 0.02 0.00 96 1009.6
20260509083544 75 0.0 0.0 0.00 0.02 0.00 96 1009.4
20260509082524 75 291 0.0 0.9 0.00 0.02 0.00 96 1009.3
20260509081524 75 50 0.9 1.7 0.00 0.02 0.00 96 1009.2
20260509080524 75 48 0.9 1.7 0.00 0.02 0.00 96 1009.3
20260509075544 75 75 0.9 1.7 0.00 0.02 0.00 96 1009.3
20260509074525 75 74 0.9 1.7 0.00 0.02 0.00 96 1009.3
20260509073525 75 55 0.9 3.5 0.00 0.02 0.00 96 1009.0
20260509072525 75 114 0.9 1.7 0.00 0.02 0.00 95 1009.1
20260509071525 75 29 0.0 0.9 0.00 0.02 0.00 95 1009.4
20260509070605 74 181 0.9 1.7 0.00 0.02 0.00 95 1009.6
20260509065526 74 101 0.0 0.9 0.00 0.02 0.00 95 1009.7
20260509064525 75 146 0.9 1.7 0.00 0.02 0.00 95 1009.7
20260509063526 75 76 0.9 1.7 0.00 0.02 0.00 95 1009.8
20260509062526 75 102 0.9 2.6 0.00 0.02 0.00 95 1009.8
20260509061526 75 24 0.0 0.9 0.00 0.02 0.00 95 1010.0
20260509060526 74 88 0.9 1.7 0.00 0.02 0.00 95 1009.9
20260509055526 74 93 0.9 2.6 0.00 0.02 0.00 95 1009.9
20260509054527 74 74 0.9 2.6 0.00 0.02 0.00 94 1010.0
20260509053526 74 86 1.7 2.6 0.00 0.02 0.00 94 1009.9
20260509052526 74 95 0.9 2.6 0.00 0.02 0.00 94 1010.0
20260509051527 74 82 1.7 3.5 0.00 0.02 0.00 94 1009.9
20260509050527 74 85 1.7 2.6 0.00 0.02 0.00 94 1010.0
20260509045527 74 71 1.7 3.5 0.00 0.02 0.02 94 1009.9
20260509044527 74 85 1.7 2.6 0.00 0.02 0.02 94 1010.0
20260509043527 74 63 1.7 2.6 0.00 0.02 0.02 94 1010.1
20260509042528 74 62 0.9 3.5 0.00 0.02 0.02 94 1010.1